Home > Weather > Lloydminster > Past weeks

Flag for Canada Weather for the Past 2 Weeks in Lloydminster, Alberta, Canada

Now
25 °F

Broken clouds.


Feels Like: 15 °F
Forecast: 16 / 27 °F
Wind: 10 mph from Northeast

Location: Lloydminister

Current Time: Feb 10, 2016 at 2:06:34 PM

Latest Report: Feb 10, 2016 at 1:00 PM


Visibility: 15 mi

Pressure: 30.28 "Hg (27.89 "Hg at 648m altitude)

Humidity: 80%

Dew point: 19 °F

Location of LloydminsterLocation

Historic Weather in Lloydminster — Graph

°F

Lloydminster Temperature Yesterday

Maximum temperature yesterday: 41 °F (at 3:00 PM)
Minimum temperature yesterday: 27 °F (at 8:00 AM)
Average temperature yesterday: 35 °F

High & Low Weather Summary for the Past Weeks

 TemperatureHumidityPressure
High41 °F (Jan 28, 8:00 PM)100% (Feb 3, 12:04 AM)30.47 "Hg (Feb 3, 12:04 AM)
Low3 °F (Feb 4, 1:00 AM)52% (Feb 6, 1:00 PM)29.32 "Hg (Jan 28, 5:00 PM)
Average24 °F80%29.94 "Hg
* Reported Jan 26 12:00 Noon — Feb 10 12:00 Noon, Lloydminster, Weather by CustomWeather, © 2016

Note: Actual official high and low records may vary slightly from our data, if they occured in-between our weather recording intervals... More about our weather records

Advertising

Lloydminster Weather History for the Previous 24 Hours

 ConditionsComfort  
Time TempWeatherWind HumidityBarometerVisibility
12:00 PM
Wed, Feb 10
25 °FOvercast.10 mph86%30.28 "Hg15 mi
11:00 AM25 °FOvercast.12 mph80%30.29 "Hg15 mi
10:00 AM27 °FOvercast.12 mph80%30.25 "Hg15 mi
9:00 AM28 °FOvercast.9 mph86%30.24 "Hg15 mi
8:00 AM28 °FOvercast.10 mph86%30.19 "Hg15 mi
7:00 AM30 °FPassing clouds.8 mph86%30.15 "Hg15 mi
6:03 AM32 °FMostly cloudy.10 mph93%30.14 "Hg9 mi
5:01 AM34 °FOvercast.10 mph87%30.11 "Hg9 mi
4:00 AM32 °FPassing clouds.13 mph93%30.09 "Hg9 mi
3:00 AM34 °FOvercast.12 mph93%30.07 "Hg9 mi
2:03 AM34 °FPassing clouds.13 mph87%30.05 "Hg9 mi
1:00 AM34 °FClear.8 mph87%30.03 "Hg9 mi
12:00 AM34 °FClear.9 mph87%30.01 "Hg9 mi
11:00 PM
Tue, Feb 9
36 °FClear.12 mph81%29.98 "Hg9 mi
10:00 PM37 °FClear.10 mph75%29.97 "Hg15 mi
9:00 PM37 °FPassing clouds.9 mph75%29.97 "Hg15 mi
8:00 PM37 °FOvercast.13 mph75%29.97 "Hg15 mi
7:00 PM37 °FPassing clouds.12 mph75%29.98 "Hg15 mi
6:00 PM37 °FPassing clouds.13 mph75%29.98 "Hg15 mi
5:00 PM37 °FBroken clouds.8 mph75%30.01 "Hg15 mi
4:00 PM39 °FPartly sunny.10 mph70%30.02 "Hg15 mi
3:00 PM41 °FOvercast.10 mph70%30.03 "Hg15 mi
2:00 PM39 °FPartly sunny.8 mph70%30.06 "Hg15 mi
Weather by CustomWeather, © 2016

See weather overviewHow to use our weather pages